Savannah, GA

9:33 PM EDT on June 24, 2017 (GMT -0400)
Savannah International

Weather History for KSAV - May, 2013

Change the Weather History Date:

Sunday, May 5, 2013

  Actual Average Record
Temperature  
Mean Temperature 68 °F 70 °F  
Max Temperature 76 °F 82 °F 95 °F (2012)
Min Temperature 59 °F 59 °F 44 °F (1997)
Degree Days  
Heating Degree Days 0 1  
Month to date heating degree days 0 5  
Since 1 July heating degree days 1622 1808  
Cooling Degree Days 3 6  
Month to date cooling degree days 13 28  
Year to date cooling degree days 151 164  
Growing Degree Days 18 (Base 50)    
Moisture  
Dew Point 61 °F    
Average Humidity 66    
Maximum Humidity 93    
Minimum Humidity 38    
Precipitation  
Precipitation 1.82 in 0.08 in 1.82 in (2013)
Month to date precipitation 2.34 0.41  
Year to date precipitation 18.72 13.69  
Sea Level Pressure  
Sea Level Pressure 29.80 in    
Wind  
Wind Speed 9 mph (SSE)    
Max Wind Speed 20 mph    
Max Gust Speed 26 mph    
Visibility 7 miles    
Events Rain    
T = Trace of Precipitation, MM = Missing Value Source: NWS Daily Summary

Daily Weather History Graph

Daily Weather History Graph

Search for Another Location

Airport or City:

Trip Planner

Search our weather history database for the weather conditions in past years. The results will help you decide how hot, cold, wet, or windy it might be!

Date:

Astronomy

May. 05, 2013 Rise Set
Actual Time 6:34 AM EDT 8:08 PM EDT
Civil Twilight 6:08 AM EDT 8:34 PM EDT
Nautical Twilight 5:37 AM EDT 9:06 PM EDT
Astronomical Twilight 5:04 AM EDT 9:39 PM EDT
Moon 3:49 AM EDT (5/5) 4:19 PM EDT (5/5)
Length of Visible Light 14h 26m
Length of Day
13h 33m
Waning Crescent, 18% of the Moon is Illuminated
May 5
Waning Crescent
May 9
New
May 18
First Quarter
May 25
Full
May 31
Last Quarter

Hourly Weather History & Observations

Time (EDT) Temp. Dew Point Humidity Pressure Visibility Wind Dir Wind Speed Gust Speed Precip Events Conditions
12:53 AM 64.9 °F 62.1 °F 90% 29.83 in 7.0 mi ESE 9.2 mph - 0.01 in Rain Light Rain
1:53 AM 64.9 °F 62.1 °F 90% 29.81 in 7.0 mi ESE 12.7 mph 24.2 mph 0.01 in Rain Light Rain
2:12 AM 64.4 °F 62.6 °F 94% 29.80 in 4.0 mi East 16.1 mph 26.5 mph 0.03 in Rain Rain
2:28 AM 64.4 °F 62.6 °F 94% 29.79 in 4.0 mi East 15.0 mph 23.0 mph 0.05 in Rain Light Rain
2:35 AM 64.4 °F 62.6 °F 94% 29.79 in 4.0 mi ESE 10.4 mph 20.7 mph 0.09 in Rain Light Rain
2:49 AM 66.2 °F 62.6 °F 88% 29.79 in 6.0 mi East 12.7 mph 21.9 mph 0.10 in Rain Light Rain
2:53 AM 66.0 °F 63.0 °F 90% 29.78 in 6.0 mi East 13.8 mph 21.9 mph 0.10 in Rain Light Rain
2:56 AM 66.2 °F 62.6 °F 88% 29.78 in 8.0 mi ESE 12.7 mph - 0.00 in Rain Light Rain
3:21 AM 66.2 °F 62.6 °F 88% 29.78 in 8.0 mi East 10.4 mph - 0.01 in Rain Light Rain
3:31 AM 66.2 °F 62.6 °F 88% 29.78 in 3.0 mi East 10.4 mph - 0.07 in Rain Heavy Rain
3:53 AM 64.9 °F 62.1 °F 90% 29.77 in 8.0 mi East 8.1 mph - 0.13 in Rain Light Rain
4:22 AM 64.4 °F 62.6 °F 94% 29.76 in 10.0 mi ENE 11.5 mph - 0.03 in Rain Light Rain
4:41 AM 66.2 °F 62.6 °F 88% 29.75 in 10.0 mi East 12.7 mph - 0.03 in   Overcast
4:53 AM 66.0 °F 62.1 °F 87% 29.74 in 10.0 mi East 12.7 mph 20.7 mph 0.03 in   Overcast
5:53 AM 66.0 °F 63.0 °F 90% 29.73 in 8.0 mi NE 5.8 mph - 0.14 in Rain Light Rain
6:53 AM 66.9 °F 63.0 °F 87% 29.76 in 9.0 mi ESE 18.4 mph 21.9 mph 0.10 in   Overcast
7:00 AM 66.2 °F 64.4 °F 94% 29.76 in 4.0 mi ESE 15.0 mph - 0.02 in Rain Heavy Rain
7:24 AM 66.2 °F 64.4 °F 94% 29.76 in 1.0 mi East 11.5 mph 21.9 mph 0.14 in Rain Heavy Rain
7:38 AM 66.2 °F 64.4 °F 94% 29.77 in 1.0 mi SE 11.5 mph - 0.26 in Rain Heavy Rain
7:49 AM 66.2 °F 64.4 °F 94% 29.76 in 6.0 mi East 13.8 mph 19.6 mph 0.35 in Rain Light Rain
7:53 AM 66.9 °F 64.0 °F 90% 29.77 in 6.0 mi ESE 13.8 mph 20.7 mph 0.35 in Rain Light Rain
7:55 AM 66.2 °F 64.4 °F 94% 29.77 in 2.0 mi SE 13.8 mph 20.7 mph N/A   Overcast
8:12 AM 66.2 °F 64.4 °F 94% 29.78 in 1.5 mi ESE 18.4 mph 21.9 mph 0.10 in Rain Heavy Rain
8:39 AM 66.2 °F 64.4 °F 94% 29.79 in 1.0 mi South 8.1 mph 16.1 mph 0.66 in Rain Heavy Rain
8:53 AM 66.9 °F 64.9 °F 93% 29.78 in 3.0 mi SE 8.1 mph - 0.96 in Rain Light Rain
9:19 AM 68.0 °F 66.2 °F 94% 29.79 in 10.0 mi South 8.1 mph - 0.00 in   Overcast
9:53 AM 68.0 °F 64.9 °F 90% 29.80 in 2.5 mi SW 9.2 mph - 0.00 in   Overcast
10:00 AM 66.2 °F 64.4 °F 94% 29.81 in 3.0 mi WSW 6.9 mph - N/A   Overcast
10:19 AM 66.2 °F 64.4 °F 94% 29.81 in 3.0 mi WSW 9.2 mph - N/A   Overcast
10:32 AM 66.2 °F 64.4 °F 94% 29.82 in 5.0 mi West 11.5 mph - N/A   Overcast
10:35 AM 66.2 °F 62.6 °F 88% 29.82 in 5.0 mi West 11.5 mph - N/A   Overcast
10:53 AM 66.0 °F 63.0 °F 90% 29.82 in 5.0 mi West 11.5 mph - N/A   Overcast
11:53 AM 64.9 °F 62.1 °F 90% 29.83 in 3.0 mi WSW 12.7 mph - N/A   Overcast
12:33 PM 66.2 °F 60.8 °F 83% 29.83 in 10.0 mi West 11.5 mph - N/A   Overcast
12:53 PM 64.9 °F 60.1 °F 84% 29.83 in 10.0 mi West 13.8 mph - N/A   Overcast
1:53 PM 68.0 °F 59.0 °F 73% 29.83 in 10.0 mi WNW 10.4 mph - N/A   Mostly Cloudy
2:04 PM 69.8 °F 60.8 °F 73% 29.83 in 10.0 mi West 10.4 mph - N/A   Scattered Clouds
2:33 PM 71.6 °F 60.8 °F 69% 29.82 in 10.0 mi WNW 8.1 mph - N/A   Mostly Cloudy
2:53 PM 73.0 °F 57.9 °F 59% 29.81 in 10.0 mi West 10.4 mph - N/A   Scattered Clouds
3:53 PM 73.9 °F 55.0 °F 52% 29.80 in 10.0 mi West 9.2 mph - N/A   Partly Cloudy
4:53 PM 75.9 °F 53.1 °F 45% 29.79 in 10.0 mi WNW 11.5 mph - N/A   Clear
5:53 PM 75.0 °F 48.0 °F 38% 29.79 in 10.0 mi West 9.2 mph - N/A   Clear
6:53 PM 73.9 °F 46.9 °F 38% 29.79 in 10.0 mi West 8.1 mph - N/A   Clear
7:53 PM 71.1 °F 48.9 °F 45% 29.81 in 10.0 mi SW 4.6 mph - N/A   Clear
8:53 PM 64.9 °F 53.1 °F 65% 29.82 in 10.0 mi SW 3.5 mph - N/A   Clear
9:53 PM 61.0 °F 53.1 °F 75% 29.84 in 10.0 mi South 3.5 mph - N/A   Clear
10:53 PM 60.1 °F 53.1 °F 78% 29.85 in 10.0 mi Calm Calm - N/A   Clear
11:53 PM 61.0 °F 52.0 °F 72% 29.86 in 10.0 mi South 4.6 mph - N/A   Clear